Weather in Onega

Russia / Arkhangel'skaya Oblast'     63°54′52″N   38°05′11″E
temp.,
°C
wind,
m/s
gust,
m/s
humid.,
%
clouds,
%
prec.,
mm/h
press.,
hPa
HPBL,
m
7 may, fri
fri700:00+3e132286100 1.4 993669
03:00+4se91691100 4.0 991514
06:00+4s91378100 0.4 993487
09:00+4s8127798 0.5 996497
12:00+5ssw7117198 0.0 998449
15:00+5ssw61073100 0.1 1001420
18:00+4ssw4775100 0.1 1002351
21:00+4sw3578100 0.1 1004138
8 may, sat
sat800:00+4ssw2384100 0.1 100657
03:00+3s2291100 0.2 100741
06:00+4sse3492100 0.1 1007101
09:00+5se358098 0.1 1008203
12:00+8se3567100 0.1 1006425
15:00+8sse81383100 2.0 1004411
18:00+6s61190100 1.9 1004377
21:00+6sse61091100 3.5 1004296
9 may, sun
sun900:00+5ssw4797100 1.5 1004237
03:00+2wnw6899100 3.3 1006241
06:00+2nw6898100 0.2 1008347
09:00+2nw579376 0.2 1010302
12:00+1wnw568515 0.0 1012293
15:00+2nw13701 0.0 1014241
18:00+4nw11665 0.0 1014176
21:00+4ssw116915 0.0 101510
10 may, mon
mon1000:00+3ssw33781 0.0 101728
03:00+3s338082 0.0 101829
06:00+4s477694 0.0 1018135
09:00+6ssw6106867 0.0 1019321
12:00+6sw5972100 0.1 1020414
15:00+6wsw2479100 0.2 1020327
18:00+6sw4680100 0.0 1021272
21:00+6ssw4690100 0.1 1021163
11 may, tue
tue1100:00+6s4595100 0.3 1021109
03:00+6s489899 2.3 1019146
06:00+7sw61395100 0.5 1019245
09:00+7wsw51195100 1.4 1020214
12:00+8wsw479168 0.0 1021252
15:00+10sw51084100 0.0 1020352
18:00+11sw6117728 0.0 1021328
21:00+10sw6107962 0.0 1021153